Weather History for KGOV - November, 2012

Change the Weather History Date:

Saturday, November 10, 2012

  Actual Average (KHTL) Record (KHTL)
Temperature  
Mean Temperature 44 °F 37 °F  
Max Temperature 53 °F 45 °F 71 °F (1931)
Min Temperature 41 °F 29 °F 8 °F (1933)
Degree Days  
Heating Degree Days 20 28  
Month to date heating degree days 264  
Since 1 July heating degree days 1242  
Moisture  
Dew Point 44 °F    
Average Humidity 98    
Maximum Humidity 100    
Minimum Humidity 89    
Precipitation  
Precipitation 0.00 in 0.07 in 1.28 in (1998)
Month to date precipitation 0.78  
Year to date precipitation 25.56  
Snow  
Snow 0.00 in 0.20 in 3.00 in (2006)
Month to date snowfall 1.6  
Since 1 July snowfall 2.2  
Snow Depth -    
Sea Level Pressure  
Sea Level Pressure 30.04 in    
Wind  
Wind Speed 6 mph (ESE)    
Max Wind Speed 13 mph    
Max Gust Speed 21 mph    
Visibility 3 miles    
Events Rain    
T = Trace of Precipitation, MM = Missing Value Source: NWS Daily Summary

Daily Weather History Graph

Daily Weather History Graph

Search for Another Location

Airport or City:

Trip Planner

Search our weather history database for the weather conditions in past years. The results will help you decide how hot, cold, wet, or windy it might be!

Date:

Astronomy

Nov. 10, 2012 Rise Set
Actual Time 7:29 AM EST 5:15 PM EST
Civil Twilight 6:58 AM EST 5:46 PM EST
Nautical Twilight 6:23 AM EST 6:21 PM EST
Astronomical Twilight 5:49 AM EST 6:56 PM EST
Moon 3:25 AM EST (11/10) 3:08 PM EST (11/10)
Length of Visible Light 10h 48m
Length of Day
9h 45m
Waning Crescent, 14% of the Moon is Illuminated
Nov 10
Waning Crescent
Nov 13
New
Nov 20
First Quarter
Nov 28
Full
Dec 6
Last Quarter

Hourly Weather History & Observations

Time (EST) Temp. Windchill Dew Point Humidity Pressure Visibility Wind Dir Wind Speed Gust Speed Precip Events Conditions
12:11 AM 41.0 °F - 40.6 °F 99% 30.13 in 3.0 mi Calm Calm - N/A   Overcast
12:31 AM 41.0 °F - 41.0 °F 100% 30.14 in 3.0 mi Calm Calm - N/A   Overcast
12:51 AM 41.0 °F 39.0 °F 41.0 °F 100% 30.13 in 3.0 mi East 3.5 mph - N/A   Overcast
1:11 AM 41.0 °F - 41.0 °F 100% 30.13 in 3.0 mi Calm Calm - N/A   Overcast
1:31 AM 41.2 °F 38.2 °F 41.0 °F 99% 30.12 in 3.0 mi East 4.6 mph - N/A   Overcast
1:52 AM 41.4 °F 38.4 °F 41.2 °F 99% 30.13 in 3.0 mi East 4.6 mph - N/A   Overcast
2:12 AM 41.4 °F 37.6 °F 41.2 °F 99% 30.13 in 4.0 mi East 5.8 mph - N/A   Overcast
2:32 AM 41.4 °F 38.4 °F 41.0 °F 99% 30.13 in 4.0 mi East 4.6 mph - N/A   Overcast
3:12 AM 41.5 °F 37.1 °F 41.0 °F 98% 30.13 in 4.0 mi East 6.9 mph - N/A   Overcast
3:32 AM 41.0 °F 35.8 °F 40.3 °F 97% 30.13 in 3.0 mi East 8.1 mph - N/A   Overcast
3:52 AM 41.0 °F 37.1 °F 40.3 °F 97% 30.13 in 3.0 mi East 5.8 mph - N/A   Overcast
4:12 AM 41.0 °F 38.0 °F 40.1 °F 97% 30.14 in 3.0 mi East 4.6 mph - N/A   Overcast
4:33 AM 41.0 °F 37.1 °F 40.1 °F 97% 30.13 in 4.0 mi East 5.8 mph - N/A   Overcast
4:53 AM 41.0 °F 35.8 °F 40.1 °F 97% 30.13 in 3.0 mi East 8.1 mph - N/A   Overcast
5:13 AM 41.0 °F 35.2 °F 40.1 °F 97% 30.13 in 3.0 mi East 9.2 mph - N/A   Overcast
5:33 AM 41.0 °F 34.7 °F 40.1 °F 97% 30.13 in 3.0 mi East 10.4 mph - N/A   Overcast
5:53 AM 41.0 °F 34.3 °F 40.1 °F 97% 30.12 in 3.0 mi East 11.5 mph - N/A   Overcast
6:13 AM 41.0 °F 35.2 °F 40.1 °F 97% 30.12 in 3.0 mi East 9.2 mph - N/A   Overcast
6:33 AM 41.0 °F 35.2 °F 40.1 °F 97% 30.13 in 3.0 mi East 9.2 mph - N/A   Overcast
6:53 AM 41.2 °F 35.5 °F 40.5 °F 97% 30.12 in 3.0 mi East 9.2 mph - N/A   Overcast
7:14 AM 41.2 °F 35.0 °F 40.3 °F 97% 30.13 in 3.0 mi East 10.4 mph - N/A   Overcast
7:34 AM 41.5 °F 35.4 °F 41.0 °F 98% 30.12 in 3.0 mi East 10.4 mph - N/A   Overcast
7:54 AM 41.5 °F 35.0 °F 41.0 °F 98% 30.09 in 1.8 mi East 11.5 mph 20.7 mph N/A Rain Rain
8:14 AM 41.5 °F 35.4 °F 41.2 °F 99% 30.11 in 1.5 mi ESE 10.4 mph - N/A Rain Rain
8:34 AM 42.1 °F 35.7 °F 41.9 °F 99% 30.10 in 1.2 mi East 11.5 mph - N/A Rain Light Rain
8:54 AM 42.4 °F 36.1 °F 42.3 °F 99% 30.11 in 1.5 mi East 11.5 mph - N/A Rain Light Rain
9:14 AM 43.3 °F 37.2 °F 42.8 °F 98% 30.12 in 2.0 mi East 11.5 mph - N/A   Overcast
9:34 AM 43.3 °F 37.2 °F 42.8 °F 98% 30.11 in 1.8 mi East 11.5 mph - N/A Rain Light Rain
9:55 AM 43.3 °F 37.2 °F 42.8 °F 98% 30.11 in 2.0 mi ESE 11.5 mph - N/A   Overcast
10:15 AM 43.3 °F 37.2 °F 42.4 °F 97% 30.12 in 2.0 mi East 11.5 mph - N/A   Overcast
10:35 AM 44.2 °F 39.2 °F 43.5 °F 97% 30.11 in 2.0 mi East 9.2 mph - N/A   Overcast
10:55 AM 44.2 °F 38.4 °F 43.3 °F 97% 30.11 in 2.0 mi East 11.5 mph - N/A   Overcast
11:15 AM 45.9 °F 41.2 °F 44.8 °F 96% 30.11 in 2.0 mi ESE 9.2 mph - N/A   Light Drizzle
11:35 AM 45.9 °F 40.8 °F 44.6 °F 95% 30.10 in 2.5 mi ESE 10.4 mph - N/A   Overcast
11:55 AM 45.5 °F 39.6 °F 44.2 °F 95% 30.07 in 2.5 mi ESE 12.7 mph - N/A   Overcast
12:15 PM 45.9 °F 40.8 °F 44.6 °F 95% 30.07 in 2.5 mi ESE 10.4 mph 17.3 mph N/A   Overcast
12:36 PM 45.9 °F 40.4 °F 44.4 °F 95% 30.05 in 2.5 mi ESE 11.5 mph - N/A   Overcast
12:56 PM 45.9 °F 42.3 °F 44.8 °F 96% 30.05 in 2.5 mi East 6.9 mph - N/A Rain Light Rain
1:11 PM 45.9 °F 40.8 °F 45.0 °F 97% 30.04 in 2.0 mi ESE 10.4 mph - N/A Rain Light Rain
1:31 PM 45.9 °F 40.8 °F 45.5 °F 99% 30.01 in 1.8 mi East 10.4 mph - N/A   Light Drizzle
1:51 PM 45.9 °F 41.2 °F 45.1 °F 97% 30.01 in 2.0 mi ESE 9.2 mph - N/A   Overcast
2:11 PM 46.8 °F - 46.0 °F 97% 30.01 in 2.0 mi ESE 10.4 mph - N/A   Overcast
2:31 PM 47.3 °F - 46.4 °F 97% 30.01 in 2.0 mi ESE 11.5 mph - N/A   Overcast
2:51 PM 46.6 °F - 45.7 °F 97% 29.99 in 1.8 mi ESE 10.4 mph - N/A   Overcast
3:11 PM 48.4 °F - 47.5 °F 97% 29.99 in 1.8 mi ESE 12.7 mph - N/A   Overcast
3:31 PM 48.4 °F - 47.3 °F 96% 29.98 in 2.0 mi ESE 12.7 mph 16.1 mph N/A   Overcast
3:51 PM 48.4 °F - 46.9 °F 95% 29.98 in 2.0 mi ESE 10.4 mph - N/A   Overcast
4:12 PM 48.4 °F - 47.3 °F 96% 29.97 in 2.0 mi ESE 10.4 mph 16.1 mph N/A   Overcast
4:32 PM 48.4 °F - 46.8 °F 94% 29.97 in 2.0 mi ESE 9.2 mph 17.3 mph N/A   Overcast
4:52 PM 48.4 °F - 46.8 °F 94% 29.97 in 2.0 mi ESE 10.4 mph 17.3 mph N/A   Overcast
5:12 PM 48.4 °F - 47.3 °F 96% 29.96 in 3.0 mi ESE 8.1 mph - N/A   Overcast
5:52 PM 48.4 °F - 47.5 °F 97% 29.96 in 3.0 mi ESE 8.1 mph - N/A   Light Drizzle
6:12 PM 48.4 °F - 47.7 °F 97% 29.95 in 2.5 mi ESE 10.4 mph - N/A Rain Light Rain
6:32 PM 48.4 °F - 47.7 °F 97% 29.95 in 3.0 mi ESE 8.1 mph - N/A   Mostly Cloudy
6:52 PM 48.4 °F - 47.7 °F 97% 29.95 in 3.0 mi ESE 6.9 mph - N/A   Scattered Clouds
7:12 PM 48.4 °F - 47.8 °F 98% 29.94 in 3.0 mi SE 6.9 mph - N/A   Mist
7:32 PM 47.7 °F - 47.1 °F 98% 29.96 in 3.0 mi SE 4.6 mph - N/A   Mist
7:53 PM 48.4 °F - 48.0 °F 99% 29.95 in 3.0 mi SE 6.9 mph - N/A   Mist
8:13 PM 45.9 °F 42.9 °F 45.7 °F 99% 29.95 in 3.0 mi SE 5.8 mph - N/A   Clear
8:33 PM 45.9 °F 44.6 °F 45.9 °F 100% 29.95 in 3.0 mi SE 3.5 mph - N/A   Clear
8:53 PM 45.7 °F - 45.5 °F 99% 29.94 in 2.5 mi Calm Calm - N/A   Clear
9:13 PM 43.5 °F - 43.5 °F 100% 29.94 in 2.5 mi Calm Calm - N/A   Clear
9:33 PM 41.9 °F 40.0 °F 41.9 °F 100% 29.92 in 2.0 mi ESE 3.5 mph - N/A   Clear
9:53 PM 45.5 °F 44.2 °F 45.5 °F 100% 29.92 in 3.0 mi SE 3.5 mph - N/A   Clear
10:33 PM 46.6 °F - 46.6 °F 100% 29.91 in 4.0 mi SSE 4.6 mph - N/A   Clear
10:53 PM 45.7 °F 42.7 °F 45.7 °F 100% 29.91 in 4.0 mi SE 5.8 mph - N/A   Clear
11:13 PM 46.4 °F 44.3 °F 46.4 °F 100% 29.89 in 5.0 mi SSE 4.6 mph - N/A   Clear
11:33 PM 48.4 °F - 48.4 °F 100% 29.89 in 7.0 mi SSE 5.8 mph - N/A   Clear
11:53 PM 53.4 °F - 50.4 °F 89% 29.90 in 10.0 mi South 8.1 mph 17.3 mph N/A   Mostly Cloudy